Probability
39 61 81 74 71 74 74 71 71 74 77 84 87 90 87 90 94 94 94 97 94 87 87 87 84 77 74 84 87 87 81 77 77 81 94 90 90 87 81 87 81 77 77
35 65 81 74 71 71 77 74 77 81 81 77 84 84 84 87 87 90 90 94 94 90 84 77 81 77 71 81 81 74 74 77 81 87 90 87 87 81 81 84 77 74 71
48 55 68 71 74 71 74 71 65 74 68 74 84 81 77 84 77 81 84 84 81 81 87 87 87 81 65 71 84 77 81 77 87 90 94 77 71 87 77 81 81 74 71
35 45 58 68 68 58 52 55 52 48 52 61 61 61 55 48 58 68 68 68 74 77 81 84 81 81 74 68 68 77 84 81 87 87 65 71 61 84 90 81 81 68 65
26 35 55 65 65 55 45 39 39 35 35 39 35 35 35 45 45 55 55 55 58 61 71 74 77 81 65 74 81 71 77 84 87 65 39 35 48 74 84 84 77 68 65
19 29 48 58 58 52 39 35 29 23 19 19 16 23 26 35 39 42 48 48 45 48 55 65 71 65 61 71 74 77 77 74 61 32 26 32 42 81 81 81 81 77 68
19 26 45 55 52 39 35 32 23 16 16 13 16 16 19 29 32 35 39 42 42 52 45 48 58 61 55 55 65 71 81 77 45 26 23 23 52 84 84 74 74 74 77
13 23 35 45 42 39 32 26 23 19 16 10 6 19 19 19 23 29 39 45 42 48 48 42 42 48 55 52 58 61 71 84 39 13 19 23 71 94 84 74 77 74 77
10 10 10 29 32 35 32 26 23 19 16 13 13 16 19 23 19 32 39 45 48 45 45 42 39 45 42 45 65 61 74 84 52 13 16 13 84 94 90 84 84 77 81
3 0 0 3 3 10 10 26 16 19 19 19 19 16 23 23 19 23 32 35 45 45 45 48 42 42 45 45 55 65 81 77 32 23 10 23 90 90 94 87 90 77 84
0 0 0 0 0 0 0 6 6 10 13 16 16 19 16 3 0 3 3 29 29 32 32 42 48 39 42 39 45 61 65 32 13 6 3 35 87 90 94 90 87 81 77
0 0 0 0 0 0 0 0 0 0 0 0 0 3 0 0 0 0 0 23 26 29 35 39 42 35 29 10 19 39 26 10 6 6 0 68 84 87 90 94 90 87 87
0 0 0 0 0 0 0 0 0 0 0 0 0 0 0 0 0 0 0 0 0 13 10 10 23 13 6 0 0 6 6 0 0 0 0 74 87 84 87 90 94 94 87
0 0 0 0 0 0 0 0 0 0 0 0 0 0 0 0 0 0 0 0 0 0 0 0 0 0 0 0 0 0 0 0 0 0 0 74 87 81 74 87 90 90 90
0 0 0 0 0 0 0 0 0 0 0 0 0 0 0 0 0 0 0 0 0 0 0 0 0 0 0 0 0 0 0 0 0 0 0 42 77 84 74 77 87 87 94
0 0 0 0 0 0 0 0 0 0 0 0 0 0 0 0 0 0 0 0 0 0 0 0 0 0 0 0 0 0 0 0 0 0 0 23 68 81 90 71 84 84 84
0 0 0 0 0 0 0 0 0 0 0 0 0 0 0 0 0 0 0 0 0 0 0 0 0 0 0 0 0 0 0 0 0 0 0 0 23 61 81 81 84 81 81
0 0 0 0 0 0 0 0 0 0 0 0 0 0 0 0 0 0 0 0 0 0 0 0 0 0 0 0 0 0 0 0 0 0 0 0 0 10 45 77 77 87 87
0 0 0 0 0 0 0 0 0 0 0 0 0 0 0 0 0 0 0 0 0 0 0 0 0 0 0 0 0 0 0 0 0 0 0 0 0 0 10 26 65 71 90
0 0 0 0 0 0 0 0 0 0 0 0 0 0 0 0 0 0 0 0 0 0 0 0 0 0 0 0 0 0 0 0 0 0 0 0 0 0 0 6 13 35 71
0 0 0 0 0 0 0 0 0 0 0 0 0 0 0 0 0 0 0 0 0 0 0 0 0 0 0 0 0 0 0 0 0 0 0 0 0 0 0 0 0 3 26
0 0 0 0 0 0 0 0 0 0 0 0 0 0 0 0 0 0 0 0 0 0 0 0 0 0 0 0 0 0 0 0 0 0 0 0 0 0 0 0 0 0 0
0 0 0 0 0 0 0 0 0 0 0 0 0 0 0 0 0 0 0 0 0 0 0 0 0 0 0 0 0 0 0 0 0 0 0 0 0 0 0 0 0 0 0
0 0 0 0 0 0 0 0 0 0 0 0 0 0 0 0 0 0 0 0 0 0 0 0 0 0 0 0 0 0 0 0 0 0 0 0 0 0 0 0 0 0 0
0 0 0 0 0 0 0 0 0 0 0 0 0 0 0 0 0 0 0 0 0 0 0 0 0 0 0 0 0 0 0 0 0 0 0 0 0 0 0 0 0 0 0
0 0 0 0 0 0 0 0 0 0 0 0 0 0 0 0 0 0 0 0 0 0 0 0 0 0 0 0 0 0 0 0 0 0 0 0 0 0 0 0 0 0 0
Height
5872 5871 5871 5870 5870 5870 5869 5869 5869 5869 5869 5869 5869 5868 5868 5869 5869 5869 5869 5870 5870 5871 5871 5872 5872 5872 5872 5873 5873 5873 5873 5873 5874 5874 5874 5874 5874 5873 5873 5873 5872 5871 5871
5870 5870 5869 5869 5868 5868 5867 5867 5867 5867 5866 5866 5866 5866 5866 5866 5866 5866 5866 5867 5867 5868 5869 5869 5870 5870 5870 5870 5871 5871 5872 5872 5872 5872 5872 5872 5873 5873 5872 5872 5871 5871 5870
5869 5868 5867 5867 5866 5866 5865 5865 5864 5864 5864 5864 5863 5863 5863 5863 5863 5863 5863 5863 5864 5865 5865 5866 5867 5867 5868 5868 5868 5869 5870 5870 5870 5871 5871 5871 5871 5872 5872 5871 5871 5870 5870
5867 5866 5865 5864 5864 5863 5863 5862 5862 5861 5861 5861 5860 5860 5859 5859 5859 5859 5860 5860 5860 5861 5862 5863 5864 5864 5865 5865 5866 5867 5867 5868 5868 5869 5869 5870 5870 5871 5871 5870 5870 5870 5869
5864 5863 5863 5862 5861 5861 5860 5859 5859 5858 5858 5857 5857 5856 5856 5856 5855 5855 5855 5856 5856 5857 5858 5859 5860 5861 5861 5862 5863 5864 5865 5866 5866 5867 5867 5868 5869 5869 5869 5869 5869 5869 5869
5862 5861 5860 5859 5859 5858 5857 5856 5855 5855 5854 5853 5853 5852 5852 5851 5851 5851 5851 5851 5852 5852 5853 5854 5856 5857 5858 5859 5860 5861 5862 5863 5864 5865 5865 5866 5867 5867 5868 5868 5869 5869 5868
5859 5858 5858 5857 5856 5855 5854 5853 5852 5851 5850 5850 5849 5848 5848 5847 5847 5846 5846 5846 5847 5848 5849 5850 5851 5852 5854 5855 5856 5858 5859 5860 5862 5862 5863 5864 5865 5866 5867 5867 5868 5868 5868
5856 5855 5855 5854 5853 5853 5851 5850 5849 5848 5847 5846 5845 5844 5843 5842 5842 5842 5842 5842 5842 5842 5844 5845 5846 5848 5849 5851 5852 5854 5855 5857 5859 5860 5861 5862 5863 5864 5865 5866 5867 5867 5868
5854 5853 5852 5851 5851 5850 5849 5847 5846 5844 5843 5842 5840 5839 5838 5838 5837 5837 5837 5836 5837 5837 5838 5840 5841 5843 5845 5846 5848 5850 5852 5854 5855 5857 5858 5859 5861 5862 5864 5864 5865 5866 5867
5853 5851 5850 5849 5848 5847 5846 5844 5842 5841 5839 5838 5836 5835 5834 5833 5832 5832 5831 5831 5831 5832 5833 5834 5836 5838 5839 5841 5843 5845 5847 5850 5852 5853 5855 5857 5858 5860 5861 5863 5864 5865 5866
5851 5850 5849 5847 5846 5844 5843 5841 5839 5837 5835 5834 5832 5831 5829 5828 5827 5826 5826 5826 5826 5826 5827 5828 5830 5832 5834 5836 5838 5841 5843 5845 5848 5850 5852 5854 5856 5858 5859 5861 5862 5863 5865
5850 5849 5847 5845 5844 5842 5840 5838 5836 5834 5832 5830 5828 5826 5825 5823 5822 5821 5820 5820 5820 5820 5821 5823 5824 5826 5828 5831 5833 5836 5839 5841 5844 5846 5848 5851 5853 5855 5857 5859 5860 5862 5863
5848 5847 5845 5844 5842 5840 5838 5836 5833 5831 5829 5827 5824 5822 5820 5819 5817 5816 5815 5814 5814 5814 5815 5816 5818 5820 5822 5825 5828 5831 5834 5837 5840 5842 5845 5847 5850 5852 5854 5856 5858 5860 5862
5846 5845 5843 5842 5840 5838 5835 5833 5831 5828 5826 5823 5821 5818 5816 5814 5812 5811 5809 5809 5808 5808 5809 5810 5812 5814 5816 5819 5822 5826 5829 5832 5835 5838 5840 5843 5846 5849 5851 5853 5856 5858 5860
5844 5843 5841 5839 5837 5835 5833 5830 5828 5825 5822 5820 5817 5814 5812 5809 5807 5806 5804 5803 5803 5803 5803 5804 5806 5808 5810 5813 5816 5820 5824 5827 5830 5833 5836 5839 5842 5845 5848 5850 5853 5855 5858
5843 5841 5839 5838 5836 5833 5831 5828 5825 5822 5819 5816 5813 5810 5807 5805 5803 5801 5799 5798 5797 5796 5797 5798 5800 5802 5804 5807 5810 5814 5818 5822 5825 5828 5831 5835 5838 5841 5844 5847 5850 5852 5855
5841 5840 5838 5836 5834 5831 5828 5826 5823 5819 5816 5813 5809 5806 5803 5801 5798 5796 5794 5793 5791 5791 5791 5792 5793 5795 5798 5800 5804 5808 5812 5816 5820 5823 5826 5830 5834 5837 5840 5843 5846 5849 5852
5840 5838 5836 5834 5832 5829 5826 5823 5820 5817 5813 5810 5806 5803 5800 5797 5794 5791 5789 5787 5786 5785 5786 5786 5788 5789 5792 5795 5798 5802 5806 5810 5814 5818 5821 5825 5829 5833 5836 5840 5843 5846 5849
5838 5837 5835 5833 5830 5828 5825 5821 5818 5814 5811 5807 5803 5800 5796 5793 5790 5787 5784 5782 5781 5780 5781 5781 5782 5784 5786 5789 5792 5796 5800 5804 5808 5813 5816 5820 5824 5828 5832 5836 5839 5842 5845
5837 5835 5833 5831 5829 5826 5823 5819 5816 5812 5808 5804 5801 5797 5793 5790 5786 5783 5780 5778 5776 5776 5776 5776 5777 5779 5781 5784 5787 5790 5794 5798 5802 5807 5811 5815 5819 5823 5828 5831 5835 5838 5842
5835 5834 5832 5830 5827 5824 5821 5818 5814 5810 5806 5802 5798 5794 5791 5787 5783 5780 5777 5774 5773 5772 5771 5771 5772 5774 5776 5779 5782 5785 5789 5793 5797 5801 5806 5810 5814 5818 5823 5826 5830 5835 5838
5834 5833 5831 5828 5826 5823 5820 5816 5813 5809 5805 5801 5796 5792 5788 5785 5781 5777 5774 5771 5769 5768 5767 5767 5768 5769 5771 5774 5777 5780 5784 5788 5792 5796 5801 5805 5809 5813 5818 5822 5826 5830 5833
5833 5831 5829 5827 5824 5822 5819 5815 5811 5807 5803 5799 5795 5790 5786 5782 5779 5775 5772 5769 5766 5765 5764 5764 5764 5766 5768 5770 5772 5776 5779 5783 5786 5791 5796 5800 5804 5808 5813 5817 5821 5825 5829
5831 5830 5828 5826 5823 5820 5817 5814 5810 5806 5802 5798 5793 5789 5785 5781 5777 5773 5770 5767 5764 5762 5761 5761 5761 5763 5765 5766 5769 5772 5775 5778 5783 5787 5792 5796 5800 5804 5808 5812 5817 5820 5824
5830 5828 5827 5824 5822 5819 5816 5813 5809 5805 5801 5797 5792 5788 5784 5780 5776 5772 5768 5765 5762 5761 5760 5759 5760 5761 5762 5764 5766 5768 5771 5775 5779 5783 5787 5791 5795 5799 5803 5807 5811 5815 5818
5828 5827 5825 5823 5821 5818 5815 5812 5808 5804 5800 5796 5792 5787 5783 5779 5775 5771 5767 5764 5761 5760 5759 5758 5758 5759 5760 5761 5763 5765 5768 5771 5775 5779 5783 5786 5790 5795 5798 5802 5806 5810 5813
Wind_Speed
7 8 8 8 9 9 10 11 12 13 14 15 15 16 17 17 18 19 19 20 19 19 18 18 17 17 16 16 15 15 14 13 12 12 10 9 8 7 7 6 6 5 5
8 9 9 10 10 10 11 12 13 13 14 15 16 17 18 18 19 20 21 21 21 21 20 19 19 18 17 17 16 16 15 14 13 12 12 10 9 8 7 7 6 5 5
9 10 11 12 12 12 12 13 14 14 15 16 17 17 18 19 20 21 21 22 23 23 22 21 21 20 19 18 18 17 16 15 14 13 12 11 10 9 8 7 6 6 5
11 12 13 13 13 13 13 14 14 15 16 17 17 18 18 19 20 22 23 23 24 24 23 23 22 22 21 20 19 18 17 16 15 14 13 12 11 9 8 7 6 6 5
12 13 13 13 13 14 15 15 15 16 17 18 18 18 19 20 21 22 23 23 24 24 25 24 24 23 23 22 21 20 19 17 16 15 14 13 12 10 9 8 6 6 5
12 12 12 13 13 14 14 15 16 16 17 18 19 20 20 21 21 22 23 24 25 25 26 26 25 25 24 23 22 21 20 19 17 16 15 15 13 11 10 8 7 6 5
12 12 11 11 12 13 13 14 15 16 17 18 19 19 20 21 22 22 23 24 25 26 26 27 27 26 25 24 23 22 20 19 18 17 16 15 14 12 10 9 7 6 4
11 11 11 11 11 12 13 14 15 16 16 17 17 18 19 20 21 22 23 24 25 26 27 27 27 27 26 25 24 23 21 20 19 18 16 16 14 13 11 9 8 7 4
10 10 9 10 10 11 12 13 14 14 15 16 17 18 19 20 21 21 23 24 25 25 26 27 27 27 27 27 26 24 22 21 20 19 17 16 15 14 12 10 9 8 6
8 8 9 9 10 11 12 12 13 14 15 16 17 18 18 20 21 22 23 24 24 25 25 26 27 27 27 27 27 25 24 22 21 20 19 17 16 15 14 12 10 9 8
7 8 8 9 10 11 11 12 13 14 15 16 17 18 18 19 20 21 22 23 24 25 25 26 26 27 28 28 27 26 25 23 22 21 20 18 17 16 14 13 11 10 10
6 7 7 9 10 11 11 12 13 14 15 16 17 17 18 18 19 20 21 22 24 25 25 25 26 27 28 28 27 26 25 24 22 21 21 20 19 17 15 14 13 12 11
6 6 7 8 9 11 12 13 13 14 15 15 16 17 17 18 18 19 20 21 23 24 25 26 25 27 28 28 28 27 25 25 23 22 22 21 20 19 17 16 15 13 13
6 6 7 8 9 11 12 13 14 15 15 15 16 16 17 17 18 18 19 20 21 23 25 26 26 26 28 29 29 28 27 25 24 24 23 22 21 21 19 17 16 15 14
5 6 8 9 11 12 14 15 16 16 16 16 17 16 17 17 17 18 18 19 20 22 24 25 26 26 28 30 30 29 28 26 25 25 24 23 23 22 21 19 18 16 16
5 6 8 11 12 14 15 16 17 17 17 17 17 17 17 16 17 17 18 18 19 20 22 24 25 27 27 30 31 31 30 28 27 26 25 25 23 22 22 20 19 18 17
6 8 10 11 13 14 15 16 16 17 18 18 18 17 17 17 17 16 16 17 18 18 20 22 24 26 27 28 30 31 31 30 28 27 27 26 25 24 23 22 21 20 19
6 8 10 11 13 14 15 16 17 17 18 18 18 17 17 17 17 16 16 16 16 17 18 20 22 24 26 27 29 30 30 31 30 28 27 28 27 26 24 23 22 21 20
6 8 10 12 13 14 16 17 17 18 19 19 19 18 18 17 17 17 15 14 14 15 16 18 20 22 24 26 28 29 30 31 31 30 28 28 28 27 25 24 23 22 22
7 9 11 12 13 15 16 17 18 18 19 19 19 18 18 18 17 16 14 14 13 14 15 16 18 20 23 25 26 27 29 29 30 31 29 28 28 28 26 25 24 23 22
7 9 10 12 13 15 16 17 18 18 19 19 19 19 18 18 17 16 14 13 12 12 13 14 16 18 20 23 25 26 27 28 29 30 29 28 28 28 27 26 26 25 24
7 9 10 12 13 14 16 17 18 18 19 20 19 19 18 17 17 16 15 13 12 11 11 12 14 17 18 19 22 25 27 28 28 29 29 28 28 29 29 28 26 27 26
7 9 10 12 13 14 15 16 17 18 19 20 20 19 18 17 17 16 15 13 11 10 9 10 12 14 16 17 20 22 25 27 27 29 29 29 29 29 29 29 28 27 26
7 9 10 11 12 13 15 15 17 18 19 20 20 19 18 17 16 16 14 12 10 8 7 7 9 11 13 15 18 20 22 25 26 27 28 29 29 29 29 29 29 28 27
7 8 10 11 12 13 14 15 16 17 18 19 20 19 18 18 17 16 14 12 9 7 5 5 6 8 10 13 16 18 21 23 24 25 27 28 28 28 28 29 30 29 29
7 8 9 10 11 12 13 14 16 17 18 19 19 18 18 18 17 16 14 12 9 6 4 3 4 6 8 9 12 15 18 20 23 24 25 27 28 27 28 28 29 29 29
Wind_Direction
295 294 286 286 287 285 283 278 273 267 266 267 265 264 262 262 258 255 254 253 253 252 253 255 256 258 258 258 257 257 260 262 264 269 271 275 281 287 290 296 300 310 316
299 299 293 287 286 287 282 277 272 268 266 267 267 265 263 262 259 257 255 253 251 251 251 254 256 257 259 258 256 257 258 258 261 265 268 270 275 283 288 293 298 307 312
294 296 293 288 286 287 283 277 272 270 269 269 268 267 263 262 259 256 256 255 252 252 252 252 254 256 257 257 256 256 255 255 259 262 265 265 269 276 283 287 293 299 307
290 291 288 286 283 283 282 280 278 274 273 273 272 269 265 263 261 259 259 257 253 251 252 253 254 254 255 256 255 253 252 254 257 260 262 261 264 270 276 280 286 292 301
290 288 286 285 284 285 286 284 280 278 275 275 274 271 268 265 263 261 260 256 254 252 250 250 252 253 253 254 253 252 252 253 254 257 258 257 258 260 266 273 279 283 294
291 289 287 285 285 284 285 284 284 281 277 277 276 273 268 266 264 262 258 258 256 253 251 249 249 250 252 252 252 252 251 250 251 255 255 254 252 251 257 263 269 273 282
295 291 289 288 289 289 288 288 288 285 280 279 278 276 272 268 265 263 261 259 256 253 253 251 248 247 249 251 250 250 249 249 250 251 252 252 250 247 253 256 257 259 262
298 296 294 293 292 292 292 292 291 289 285 284 281 277 273 269 267 265 261 258 255 254 253 250 248 246 247 247 247 248 248 247 247 248 248 248 246 244 247 250 249 242 240
303 301 301 300 300 300 299 296 294 292 290 289 286 282 276 272 269 267 262 257 255 255 253 249 247 246 246 245 245 246 246 244 245 245 245 243 240 240 242 244 242 233 225
314 313 312 311 308 307 305 304 301 297 294 292 290 287 283 277 272 269 265 260 256 253 251 248 246 245 245 243 243 243 242 241 241 241 241 240 237 238 240 239 236 230 221
312 313 314 313 312 312 311 310 307 304 300 297 294 291 287 282 275 271 266 262 258 255 251 248 245 243 243 242 241 240 239 238 238 237 237 236 236 237 237 234 232 229 222
310 313 318 321 324 325 323 319 315 310 305 302 299 296 292 287 281 274 269 263 259 255 252 249 246 243 240 239 238 239 237 236 235 234 235 235 235 235 233 231 229 227 222
314 320 327 332 334 334 332 328 324 318 314 311 306 301 296 292 285 280 275 268 262 255 251 248 248 243 238 236 236 236 235 234 234 233 232 232 233 233 232 229 227 225 221
320 327 334 341 340 339 337 334 330 326 321 317 312 307 301 296 290 283 277 271 266 259 252 248 246 243 238 235 234 233 234 233 233 231 232 231 230 230 230 229 226 224 221
332 337 341 345 343 341 339 336 334 331 326 322 319 313 308 301 295 290 282 275 268 261 254 249 245 243 239 234 231 231 231 232 232 230 230 230 227 226 227 227 225 223 220
338 341 342 345 343 340 338 336 334 331 329 327 323 320 314 307 300 295 289 282 273 264 255 248 244 240 237 234 231 231 230 230 230 228 227 227 225 224 224 225 225 221 219
339 343 343 344 344 343 342 339 337 335 333 331 327 324 319 313 307 300 292 284 276 266 256 249 243 239 237 233 231 230 228 228 228 226 227 225 225 225 224 224 224 221 219
339 341 343 344 345 345 345 343 342 340 337 335 331 327 324 319 313 307 299 289 279 268 257 250 243 239 235 232 229 227 226 226 226 224 225 224 223 223 223 223 223 222 218
335 341 343 344 345 346 346 345 344 342 341 339 336 333 330 326 319 313 306 297 283 269 260 253 244 239 235 231 228 226 224 222 223 224 225 224 222 222 223 222 222 221 218
334 339 342 344 344 345 346 347 346 345 344 342 339 337 335 331 326 321 312 302 287 272 263 255 244 237 232 229 227 225 222 220 221 222 222 223 221 222 222 223 220 221 219
333 338 340 342 342 344 346 347 346 346 346 344 342 339 336 333 331 328 320 308 294 279 266 256 245 236 231 228 226 224 222 221 220 220 220 221 221 221 222 222 220 221 221
331 334 336 337 340 343 345 346 346 347 348 347 345 341 339 337 334 332 328 319 305 287 271 257 244 235 232 228 225 222 220 219 219 218 217 218 219 221 222 222 221 221 221
328 332 333 336 339 341 344 346 347 348 349 350 348 346 343 341 340 338 334 329 317 297 278 259 242 231 229 226 223 221 220 217 217 217 216 217 218 220 221 222 220 220 221
325 329 332 336 338 341 344 347 350 351 352 352 351 350 348 346 344 342 341 337 329 311 287 262 240 229 226 223 220 219 219 217 217 217 217 217 218 220 221 220 219 223 224
324 329 332 335 339 342 345 347 349 351 353 354 353 352 351 351 350 348 347 345 338 326 304 264 236 229 225 221 219 218 217 217 216 216 217 218 217 219 221 222 221 223 226
321 329 332 336 339 342 345 347 349 351 353 354 355 355 355 356 356 355 354 353 350 345 327 278 236 225 223 221 218 216 215 215 216 217 218 219 219 220 222 223 223 225 227